| time (UTC) | temp C | wind direction | speed KPH | gust KPH | rain 1hr cm | rain 24hr cm | rain mn cm | humidity % | barometer mb |
| 20260506201234 | 35 | 117 | 3.2 | 8.0 | 0.00 | 0.00 | 0.00 | 44 | 1015.1 |
| 20260506200204 | 34 | 97 | 6.4 | 11.3 | 0.00 | 0.00 | 0.00 | 45 | 1015.2 |
| 20260506195704 | 35 | 95 | 6.4 | 11.3 | 0.00 | 0.00 | 0.00 | 47 | 1015.1 |
| 20260506195133 | 35 | 92 | 3.2 | 9.7 | 0.00 | 0.00 | 0.00 | 46 | 1015.1 |
| 20260506194634 | 34 | 116 | 3.2 | 12.9 | 0.00 | 0.00 | 0.00 | 45 | 1015.2 |
| 20260506194103 | 34 | 110 | 6.4 | 12.9 | 0.00 | 0.00 | 0.00 | 45 | 1015.3 |
| 20260506193034 | 34 | 98 | 6.4 | 14.5 | 0.00 | 0.00 | 0.00 | 50 | 1015.4 |
| 20260506192534 | 34 | 102 | 4.8 | 14.5 | 0.00 | 0.00 | 0.00 | 48 | 1015.5 |
| 20260506192034 | 34 | 102 | 6.4 | 14.5 | 0.00 | 0.00 | 0.00 | 48 | 1015.6 |
| 20260506191534 | 34 | 102 | 8.0 | 14.5 | 0.00 | 0.00 | 0.00 | 49 | 1015.7 |
| 20260506185934 | 34 | 94 | 8.0 | 14.5 | 0.00 | 0.00 | 0.00 | 47 | 1016.0 |
| 20260506185433 | 34 | 99 | 6.4 | 14.5 | 0.00 | 0.00 | 0.00 | 50 | 1016.2 |
| 20260506184904 | 33 | 99 | 8.0 | 12.9 | 0.00 | 0.00 | 0.00 | 49 | 1016.2 |
| 20260506184404 | 33 | 96 | 8.0 | 12.9 | 0.00 | 0.00 | 0.00 | 50 | 1016.2 |
| 20260506181233 | 33 | 98 | 8.0 | 16.1 | 0.00 | 0.00 | 0.00 | 51 | 1016.6 |
| 20260506180204 | 32 | 101 | 6.4 | 14.5 | 0.00 | 0.00 | 0.00 | 53 | 1016.6 |
| 20260506175704 | 32 | 103 | 8.0 | 14.5 | 0.00 | 0.00 | 0.00 | 52 | 1016.7 |
| 20260506174603 | 32 | 98 | 8.0 | 14.5 | 0.00 | 0.00 | 0.00 | 54 | 1016.9 |
| 20260506174103 | 32 | 99 | 8.0 | 12.9 | 0.00 | 0.00 | 0.00 | 53 | 1017.0 |
| 20260506173533 | 32 | 100 | 8.0 | 14.5 | 0.00 | 0.00 | 0.00 | 55 | 1017.0 |
| 20260506173033 | 32 | 99 | 6.4 | 14.5 | 0.00 | 0.00 | 0.00 | 54 | 1017.0 |
| 20260506172534 | 32 | 101 | 6.4 | 12.9 | 0.00 | 0.00 | 0.00 | 55 | 1017.1 |
| 20260506171434 | 32 | 106 | 6.4 | 12.9 | 0.00 | 0.00 | 0.00 | 53 | 1017.2 |
| 20260506170904 | 32 | 101 | 6.4 | 12.9 | 0.00 | 0.00 | 0.00 | 56 | 1017.2 |
| 20260506170334 | 32 | 100 | 8.0 | 12.9 | 0.00 | 0.00 | 0.00 | 56 | 1017.3 |
| 20260506164734 | 32 | 103 | 8.0 | 14.5 | 0.00 | 0.00 | 0.00 | 57 | 1017.4 |
| 20260506164204 | 32 | 106 | 6.4 | 14.5 | 0.00 | 0.00 | 0.00 | 56 | 1017.4 |
| 20260506163704 | 32 | 110 | 4.8 | 14.5 | 0.00 | 0.00 | 0.00 | 56 | 1017.4 |
| 20260506162703 | 32 | 97 | 8.0 | 12.9 | 0.00 | 0.00 | 0.00 | 56 | 1017.4 |
| 20260506162134 | 32 | 107 | 4.8 | 12.9 | 0.00 | 0.00 | 0.00 | 56 | 1017.4 |
| 20260506161634 | 32 | 120 | 4.8 | 11.3 | 0.00 | 0.00 | 0.00 | 57 | 1017.6 |
| 20260506161104 | 32 | 114 | 6.4 | 16.1 | 0.00 | 0.00 | 0.00 | 56 | 1017.5 |
| 20260506160603 | 31 | 113 | 6.4 | 16.1 | 0.00 | 0.00 | 0.00 | 54 | 1017.4 |
| 20260506160034 | 32 | 106 | 4.8 | 12.9 | 0.00 | 0.00 | 0.00 | 56 | 1017.5 |
| 20260506155534 | 31 | 104 | 4.8 | 12.9 | 0.00 | 0.00 | 0.00 | 57 | 1017.4 |
| 20260506155004 | 31 | 105 | 4.8 | 11.3 | 0.00 | 0.00 | 0.00 | 58 | 1017.4 |
| 20260506153933 | 31 | 112 | 4.8 | 11.3 | 0.00 | 0.00 | 0.00 | 61 | 1017.6 |
| 20260506153549 | 31 | 99 | 4.8 | 16.1 | 0.00 | 0.00 | 0.00 | 63 | 1017.6 |
| 20260506153433 | 31 | 99 | 4.8 | 16.1 | 0.00 | 0.00 | 0.00 | 63 | 1017.6 |
| 20260506152933 | 30 | 104 | 4.8 | 16.1 | 0.00 | 0.00 | 0.00 | 64 | 1017.6 |
| 20260506152403 | 30 | 109 | 4.8 | 12.9 | 0.00 | 0.00 | 0.00 | 65 | 1017.7 |
| 20260506151834 | 29 | 131 | 3.2 | 12.9 | 0.00 | 0.00 | 0.00 | 67 | 1017.7 |
| 20260506150235 | 28 | 139 | 3.2 | 12.9 | 0.00 | 0.00 | 0.00 | 71 | 1017.4 |
| 20260506145734 | 28 | 119 | 3.2 | 11.3 | 0.00 | 0.00 | 0.00 | 73 | 1017.5 |
| 20260506145234 | 28 | 123 | 3.2 | 11.3 | 0.00 | 0.00 | 0.00 | 73 | 1017.5 |
| 20260506144733 | 28 | 135 | 3.2 | 9.7 | 0.00 | 0.00 | 0.00 | 75 | 1017.6 |
| 20260506144447 | 28 | 119 | 4.8 | 9.7 | 0.00 | 0.00 | 0.00 | 75 | 1017.7 |
| 20260506144204 | 28 | 119 | 4.8 | 9.7 | 0.00 | 0.00 | 0.00 | 75 | 1017.7 |
| 20260506143704 | 28 | 110 | 4.8 | 11.3 | 0.00 | 0.00 | 0.00 | 76 | 1017.7 |
| 20260506143204 | 27 | 116 | 3.2 | 11.3 | 0.00 | 0.00 | 0.00 | 77 | 1017.7 |
| 20260506142133 | 27 | 130 | 3.2 | 6.4 | 0.00 | 0.00 | 0.00 | 80 | 1017.7 |
| 20260506141633 | 26 | 134 | 3.2 | 11.3 | 0.00 | 0.00 | 0.00 | 80 | 1017.7 |
| 20260506141210 | 26 | 124 | 3.2 | 11.3 | 0.00 | 0.00 | 0.00 | 81 | 1017.7 |
| 20260506141134 | 26 | 124 | 3.2 | 11.3 | 0.00 | 0.00 | 0.00 | 81 | 1017.7 |
| 20260506140604 | 26 | 136 | 3.2 | 11.3 | 0.00 | 0.00 | 0.00 | 82 | 1017.6 |
| 20260506140033 | 25 | 160 | 3.2 | 12.9 | 0.00 | 0.00 | 0.00 | 83 | 1017.6 |
| 20260506135003 | 25 | 171 | 4.8 | 14.5 | 0.00 | 0.00 | 0.00 | 84 | 1017.6 |
| 20260506134503 | 25 | 169 | 3.2 | 14.5 | 0.00 | 0.00 | 0.00 | 85 | 1017.7 |
| 20260506133933 | 25 | 168 | 4.8 | 11.3 | 0.00 | 0.00 | 0.00 | 86 | 1017.6 |
| 20260506133404 | 25 | 173 | 4.8 | 11.3 | 0.00 | 0.00 | 0.00 | 86 | 1017.7 |
| 20260506132903 | 24 | 176 | 4.8 | 12.9 | 0.00 | 0.00 | 0.00 | 87 | 1017.6 |
| 20260506132334 | 24 | 174 | 3.2 | 12.9 | 0.00 | 0.00 | 0.00 | 87 | 1017.5 |
| 20260506131334 | 24 | 163 | 4.8 | 11.3 | 0.00 | 0.00 | 0.00 | 88 | 1017.2 |
| 20260506130334 | 23 | 147 | 3.2 | 11.3 | 0.00 | 0.00 | 0.00 | 89 | 1017.2 |
| 20260506125333 | 23 | 158 | 3.2 | 9.7 | 0.00 | 0.00 | 0.00 | 90 | 1017.1 |
| 20260506124833 | 23 | 164 | 3.2 | 9.7 | 0.00 | 0.00 | 0.00 | 91 | 1016.9 |
| 20260506123234 | 22 | 123 | 1.6 | 9.7 | 0.00 | 0.00 | 0.00 | 93 | 1016.9 |
| 20260506122734 | 22 | 128 | 1.6 | 9.7 | 0.00 | 0.00 | 0.00 | 93 | 1016.9 |
| 20260506121134 | 22 | 174 | 1.6 | 9.7 | 0.00 | 0.00 | 0.00 | 93 | 1016.9 |
| 20260506120603 | 22 | 129 | 1.6 | 6.4 | 0.00 | 0.00 | 0.00 | 93 | 1016.9 |
| 20260506120103 | 22 | 118 | 3.2 | 6.4 | 0.00 | 0.00 | 0.00 | 94 | 1016.8 |
| 20260506115034 | 21 | 134 | 1.6 | 8.0 | 0.00 | 0.00 | 0.00 | 94 | 1016.7 |
| 20260506114534 | 21 | 115 | 1.6 | 9.7 | 0.00 | 0.00 | 0.00 | 94 | 1016.6 |
| 20260506111933 | 21 | 153 | 1.6 | 4.8 | 0.00 | 0.00 | 0.00 | 95 | 1016.5 |
| 20260506110834 | 21 | 132 | 1.6 | 9.7 | 0.00 | 0.00 | 0.00 | 95 | 1016.4 |
| 20260506105733 | 20 | 148 | 1.6 | 6.4 | 0.00 | 0.00 | 0.00 | 95 | 1016.2 |
| 20260506105203 | 20 | 132 | 1.6 | 6.4 | 0.00 | 0.00 | 0.00 | 95 | 1016.1 |
| 20260506104703 | 20 | 111 | 1.6 | 6.4 | 0.00 | 0.00 | 0.00 | 95 | 1016.0 |
| 20260506104133 | 20 | 107 | 3.2 | 6.4 | 0.00 | 0.00 | 0.00 | 95 | 1016.1 |
| 20260506103633 | 20 | 105 | 3.2 | 6.4 | 0.00 | 0.00 | 0.00 | 94 | 1016.0 |
| 20260506103133 | 20 | 102 | 3.2 | 6.4 | 0.00 | 0.00 | 0.00 | 94 | 1016.0 |
| 20260506102133 | 20 | 106 | 4.8 | 6.4 | 0.00 | 0.00 | 0.00 | 94 | 1016.0 |
| 20260506101603 | 21 | 104 | 3.2 | 9.7 | 0.00 | 0.00 | 0.00 | 94 | 1016.1 |
| 20260506101103 | 21 | 104 | 1.6 | 9.7 | 0.00 | 0.00 | 0.00 | 94 | 1016.0 |
| 20260506100534 | 21 | 135 | 0.0 | 6.4 | 0.00 | 0.00 | 0.00 | 94 | 1016.0 |
| 20260506095503 | 21 | 144 | 0.0 | 1.6 | 0.00 | 0.00 | 0.00 | 93 | 1016.1 |
| 20260506094434 | 21 | 111 | 1.6 | 4.8 | 0.00 | 0.00 | 0.00 | 93 | 1016.0 |
| 20260506093934 | 21 | 113 | 1.6 | 4.8 | 0.00 | 0.00 | 0.00 | 92 | 1015.9 |
| 20260506093433 | 21 | 118 | 0.0 | 4.8 | 0.00 | 0.00 | 0.00 | 92 | 1015.9 |
| 20260506092903 | 21 | 152 | 1.6 | 3.2 | 0.00 | 0.00 | 0.00 | 92 | 1016.0 |
| 20260506092403 | 21 | 154 | 1.6 | 8.0 | 0.00 | 0.00 | 0.00 | 92 | 1015.9 |
| 20260506091903 | 21 | 147 | 0.0 | 8.0 | 0.00 | 0.00 | 0.00 | 92 | 1015.7 |
| 20260506091334 | 21 | 148 | 0.0 | 4.8 | 0.00 | 0.00 | 0.00 | 92 | 1015.7 |
| 20260506090333 | 20 | 168 | 1.6 | 6.4 | 0.00 | 0.00 | 0.00 | 91 | 1015.7 |
| 20260506084803 | 20 | 105 | 1.6 | 3.2 | 0.00 | 0.00 | 0.00 | 90 | 1015.7 |
| 20260506084303 | 21 | 109 | 1.6 | 6.4 | 0.00 | 0.00 | 0.00 | 90 | 1015.8 |
| 20260506083803 | 21 | 109 | 3.2 | 6.4 | 0.00 | 0.00 | 0.00 | 90 | 1015.7 |
| 20260506083304 | 20 | 121 | 3.2 | 6.4 | 0.00 | 0.00 | 0.00 | 90 | 1015.7 |
| 20260506082803 | 20 | 139 | 1.6 | 6.4 | 0.00 | 0.00 | 0.00 | 90 | 1015.6 |
| 20260506082234 | 20 | 145 | 0.0 | 4.8 | 0.00 | 0.00 | 0.00 | 89 | 1015.9 |
| 20260506081233 | 20 | 136 | 1.6 | 3.2 | 0.00 | 0.00 | 0.00 | 89 | 1016.0 |
| 20260506080133 | 20 | 152 | 1.6 | 4.8 | 0.00 | 0.00 | 0.00 | 88 | 1015.9 |
| 20260506073103 | 20 | 151 | 1.6 | 4.8 | 0.00 | 0.00 | 0.00 | 88 | 1016.0 |
| 20260506072533 | 20 | 138 | 1.6 | 6.4 | 0.00 | 0.00 | 0.00 | 88 | 1015.9 |
| 20260506072003 | 20 | 144 | 1.6 | 6.4 | 0.00 | 0.00 | 0.00 | 88 | 1016.1 |
| 20260506071503 | 20 | 155 | 1.6 | 4.8 | 0.00 | 0.00 | 0.00 | 88 | 1016.1 |
| 20260506071003 | 20 | 118 | 0.0 | 4.8 | 0.00 | 0.00 | 0.00 | 88 | 1016.1 |
| 20260506062233 | 20 | 105 | 3.2 | 8.0 | 0.00 | 0.00 | 0.00 | 87 | 1016.3 |
| 20260506061733 | 20 | 102 | 3.2 | 9.7 | 0.00 | 0.00 | 0.00 | 87 | 1016.3 |
| 20260506061207 | 20 | 101 | 3.2 | 9.7 | 0.00 | 0.00 | 0.00 | 87 | 1016.4 |
| 20260506060633 | 20 | 111 | 1.6 | 6.4 | 0.00 | 0.00 | 0.00 | 87 | 1016.4 |
| 20260506060134 | 20 | 123 | 0.0 | 6.4 | 0.00 | 0.00 | 0.00 | 87 | 1016.5 |
| 20260506050933 | 20 | 101 | 4.8 | 9.7 | 0.00 | 0.00 | 0.00 | 85 | 1016.9 |
| 20260506050433 | 20 | 102 | 4.8 | 6.4 | 0.00 | 0.00 | 0.00 | 84 | 1017.0 |
| 20260506042733 | 21 | 105 | 3.2 | 9.7 | 0.00 | 0.00 | 0.00 | 82 | 1017.0 |
| 20260506042233 | 21 | 110 | 3.2 | 6.4 | 0.00 | 0.00 | 0.00 | 81 | 1016.9 |
| 20260506041703 | 21 | 105 | 3.2 | 9.7 | 0.00 | 0.00 | 0.00 | 81 | 1016.9 |
| 20260506041204 | 21 | 109 | 3.2 | 9.7 | 0.00 | 0.00 | 0.00 | 80 | 1016.9 |
| 20260506040703 | 21 | 111 | 3.2 | 9.7 | 0.00 | 0.00 | 0.00 | 80 | 1016.9 |
| 20260506040203 | 21 | 105 | 3.2 | 9.7 | 0.00 | 0.00 | 0.00 | 80 | 1016.9 |
| 20260506035104 | 21 | 123 | 1.6 | 11.3 | 0.00 | 0.00 | 0.00 | 80 | 1016.9 |
| 20260506034534 | 21 | 105 | 4.8 | 11.3 | 0.00 | 0.00 | 0.00 | 79 | 1016.9 |
| 20260506033503 | 22 | 108 | 6.4 | 11.3 | 0.00 | 0.00 | 0.00 | 79 | 1017.0 |
| 20260506032933 | 22 | 108 | 6.4 | 12.9 | 0.00 | 0.00 | 0.00 | 79 | 1017.0 |
| 20260506032433 | 22 | 107 | 6.4 | 11.3 | 0.00 | 0.00 | 0.00 | 78 | 1017.0 |
| 20260506031934 | 22 | 105 | 6.4 | 11.3 | 0.00 | 0.00 | 0.00 | 78 | 1017.0 |
| 20260506031403 | 22 | 106 | 6.4 | 12.9 | 0.00 | 0.00 | 0.00 | 78 | 1017.0 |
| 20260506030833 | 22 | 105 | 6.4 | 14.5 | 0.00 | 0.00 | 0.00 | 77 | 1016.9 |
| 20260506025803 | 22 | 107 | 8.0 | 11.3 | 0.00 | 0.00 | 0.00 | 77 | 1016.9 |
| 20260506025305 | 22 | 104 | 8.0 | 12.9 | 0.00 | 0.00 | 0.00 | 77 | 1016.9 |
| 20260506024733 | 22 | 105 | 6.4 | 12.9 | 0.00 | 0.00 | 0.00 | 76 | 1016.8 |
| 20260506024233 | 22 | 107 | 4.8 | 12.9 | 0.00 | 0.00 | 0.00 | 75 | 1016.7 |
| 20260506023235 | 22 | 105 | 6.4 | 14.5 | 0.00 | 0.00 | 0.00 | 75 | 1016.7 |
| 20260506022704 | 22 | 106 | 8.0 | 14.5 | 0.00 | 0.00 | 0.00 | 75 | 1016.6 |
| 20260506022203 | 23 | 104 | 9.7 | 14.5 | 0.00 | 0.00 | 0.00 | 75 | 1016.6 |
| 20260506021133 | 23 | 103 | 9.7 | 16.1 | 0.00 | 0.00 | 0.00 | 74 | 1016.5 |
| 20260506020603 | 23 | 103 | 11.3 | 16.1 | 0.00 | 0.00 | 0.00 | 74 | 1016.4 |
| 20260506020033 | 23 | 101 | 12.9 | 22.5 | 0.00 | 0.00 | 0.00 | 73 | 1016.3 |
| 20260506015503 | 23 | 102 | 14.5 | 22.5 | 0.00 | 0.00 | 0.00 | 73 | 1016.3 |
| 20260506014934 | 23 | 101 | 14.5 | 22.5 | 0.00 | 0.00 | 0.00 | 74 | 1016.1 |
| 20260506014433 | 23 | 99 | 14.5 | 22.5 | 0.00 | 0.00 | 0.00 | 74 | 1016.0 |
| 20260506013404 | 23 | 102 | 14.5 | 22.5 | 0.00 | 0.00 | 0.00 | 73 | 1016.0 |
| 20260506012834 | 23 | 103 | 14.5 | 24.1 | 0.00 | 0.00 | 0.00 | 72 | 1015.8 |
| 20260506012307 | 24 | 101 | 16.1 | 24.1 | 0.00 | 0.00 | 0.00 | 71 | 1015.7 |
| 20260506011733 | 24 | 101 | 16.1 | 25.7 | 0.00 | 0.00 | 0.00 | 72 | 1015.7 |
| 20260506011233 | 24 | 103 | 16.1 | 25.7 | 0.00 | 0.00 | 0.00 | 71 | 1015.6 |
| 20260506010203 | 24 | 99 | 16.1 | 22.5 | 0.00 | 0.00 | 0.00 | 70 | 1015.5 |
| 20260506005133 | 24 | 103 | 16.1 | 24.1 | 0.00 | 0.00 | 0.00 | 70 | 1015.4 |
| 20260506004133 | 25 | 99 | 17.7 | 27.4 | 0.00 | 0.00 | 0.00 | 70 | 1015.1 |
| 20260506003633 | 25 | 101 | 16.1 | 27.4 | 0.00 | 0.00 | 0.00 | 70 | 1015.1 |
| 20260506003133 | 25 | 102 | 14.5 | 24.1 | 0.00 | 0.00 | 0.00 | 70 | 1015.1 |
| 20260506002103 | 25 | 104 | 14.5 | 25.7 | 0.00 | 0.00 | 0.00 | 69 | 1014.9 |
| 20260506001604 | 25 | 104 | 14.5 | 25.7 | 0.00 | 0.00 | 0.00 | 69 | 1014.9 |
| 20260506001033 | 25 | 102 | 17.7 | 25.7 | 0.00 | 0.00 | 0.00 | 68 | 1015.0 |
| 20260506000533 | 25 | 101 | 17.7 | 29.0 | 0.00 | 0.00 | 0.00 | 66 | 1014.9 |
| 20260506000005 | 25 | 102 | 19.3 | 30.6 | 0.00 | 0.00 | 0.00 | 68 | 1014.9 |
| 20260505235503 | 26 | 104 | 19.3 | 30.6 | 0.00 | 0.00 | 0.00 | 67 | 1014.7 |
| 20260505235004 | 26 | 102 | 22.5 | 32.2 | 0.00 | 0.00 | 0.00 | 68 | 1014.6 |
| 20260505234503 | 26 | 100 | 24.1 | 33.8 | 0.00 | 0.00 | 0.00 | 67 | 1014.6 |
| 20260505234004 | 26 | 101 | 20.9 | 33.8 | 0.00 | 0.00 | 0.00 | 67 | 1014.5 |
| 20260505233503 | 26 | 102 | 19.3 | 27.4 | 0.00 | 0.00 | 0.00 | 66 | 1014.5 |
| 20260505233005 | 26 | 100 | 20.9 | 30.6 | 0.00 | 0.00 | 0.00 | 66 | 1014.4 |
| 20260505232503 | 27 | 100 | 22.5 | 30.6 | 0.00 | 0.00 | 0.00 | 65 | 1014.5 |
| 20260505231503 | 27 | 100 | 17.7 | 29.0 | 0.00 | 0.00 | 0.00 | 65 | 1014.6 |
| 20260505231005 | 27 | 97 | 16.1 | 25.7 | 0.00 | 0.00 | 0.00 | 64 | 1014.5 |
| 20260505230433 | 27 | 99 | 16.1 | 24.1 | 0.00 | 0.00 | 0.00 | 63 | 1014.5 |
| 20260505225905 | 27 | 100 | 17.7 | 24.1 | 0.00 | 0.00 | 0.00 | 62 | 1014.5 |
| 20260505224303 | 28 | 101 | 14.5 | 20.9 | 0.00 | 0.00 | 0.00 | 60 | 1014.5 |
| 20260505223803 | 28 | 101 | 11.3 | 17.7 | 0.00 | 0.00 | 0.00 | 60 | 1014.5 |
| 20260505223303 | 28 | 106 | 9.7 | 17.7 | 0.00 | 0.00 | 0.00 | 57 | 1014.6 |
| 20260505222733 | 28 | 105 | 9.7 | 16.1 | 0.00 | 0.00 | 0.00 | 59 | 1014.4 |
| 20260505222233 | 28 | 100 | 9.7 | 16.1 | 0.00 | 0.00 | 0.00 | 58 | 1014.3 |
| 20260505221703 | 28 | 100 | 12.9 | 17.7 | 0.00 | 0.00 | 0.00 | 59 | 1014.3 |
| 20260505221203 | 28 | 98 | 11.3 | 17.7 | 0.00 | 0.00 | 0.00 | 56 | 1014.4 |
| 20260505220633 | 28 | 96 | 11.3 | 19.3 | 0.00 | 0.00 | 0.00 | 58 | 1014.3 |
| 20260505215633 | 28 | 100 | 14.5 | 20.9 | 0.00 | 0.00 | 0.00 | 58 | 1014.5 |
| 20260505215133 | 29 | 99 | 16.1 | 22.5 | 0.00 | 0.00 | 0.00 | 59 | 1014.4 |
| 20260505214604 | 29 | 98 | 14.5 | 22.5 | 0.00 | 0.00 | 0.00 | 56 | 1014.4 |
| 20260505213504 | 30 | 108 | 4.8 | 9.7 | 0.00 | 0.00 | 0.00 | 53 | 1014.4 |
| 20260505212933 | 30 | 113 | 4.8 | 12.9 | 0.00 | 0.00 | 0.00 | 53 | 1014.3 |
| 20260505212403 | 30 | 106 | 4.8 | 12.9 | 0.00 | 0.00 | 0.00 | 53 | 1014.4 |
| 20260505211903 | 30 | 100 | 6.4 | 17.7 | 0.00 | 0.00 | 0.00 | 56 | 1014.4 |
| 20260505211335 | 30 | 97 | 9.7 | 17.7 | 0.00 | 0.00 | 0.00 | 53 | 1014.3 |
| 20260505210833 | 30 | 96 | 9.7 | 17.7 | 0.00 | 0.00 | 0.00 | 54 | 1014.3 |
| 20260505205833 | 30 | 100 | 9.7 | 17.7 | 0.00 | 0.00 | 0.00 | 52 | 1014.4 |
| 20260505205305 | 31 | 104 | 6.4 | 17.7 | 0.00 | 0.00 | 0.00 | 51 | 1014.3 |
| 20260505204803 | 31 | 112 | 3.2 | 11.3 | 0.00 | 0.00 | 0.00 | 52 | 1014.3 |
| 20260505204233 | 31 | 107 | 4.8 | 11.3 | 0.00 | 0.00 | 0.00 | 49 | 1014.4 |
| 20260505203733 | 31 | 102 | 6.4 | 11.3 | 0.00 | 0.00 | 0.00 | 50 | 1014.4 |
| 20260505203233 | 31 | 93 | 3.2 | 11.3 | 0.00 | 0.00 | 0.00 | 52 | 1014.4 |
| 20260505202703 | 31 | 66 | 3.2 | 6.4 | 0.00 | 0.00 | 0.00 | 49 | 1014.5 |
| 20260505202203 | 31 | 79 | 3.2 | 6.4 | 0.00 | 0.00 | 0.00 | 49 | 1014.5 |